Location: New Plymouth
(39.0670°S, 174.0830°E)
Time: 07:30:46
(UTC+13:00)

ISS - Visible Passes

Search period start: 24 October 2019 00:00
Search period end: 03 November 2019 00:00
Orbit: 411 x 421 km, 51.6° (Epoch: 24 October)

Date Brightness Start Highest point End Pass type
(mag) Time Alt. Az. Time Alt. Az. Time Alt. Az.
24 Oct -0.6 21:48:56 10° SSW 21:50:07 11° S 21:51:18 10° S visible
25 Oct -0.8 20:59:27 10° SW 21:01:14 13° SSW 21:03:00 10° SSE visible
25 Oct -0.5 22:38:26 10° S 22:39:11 11° S 22:39:23 10° S visible
26 Oct -0.5 21:49:59 10° S 21:50:14 10° S 21:50:29 10° S visible
27 Oct -0.6 21:00:37 10° SSW 21:01:17 10° S 21:01:56 10° S visible
27 Oct -0.8 22:37:23 10° SSW 22:38:47 13° S 22:38:47 13° S visible
28 Oct -0.9 21:49:04 10° S 21:50:18 11° S 21:51:33 10° SSE visible
28 Oct -0.1 23:24:47 10° SW 23:24:51 10° SW 23:24:51 10° SW visible
29 Oct -0.7 21:00:44 10° S 21:01:21 10° S 21:01:57 10° SSE visible
29 Oct -1.2 22:36:22 10° SSW 22:38:01 19° S 22:38:01 19° S visible
30 Oct -1.4 21:47:58 10° SSW 21:50:14 16° SSE 21:51:12 15° SE visible
30 Oct -0.2 23:24:00 10° SW 23:24:04 10° SW 23:24:04 10° SW visible
31 Oct -1.1 20:59:35 10° SSW 21:01:18 13° SSE 21:03:02 10° SE visible
31 Oct -1.6 22:35:26 10° SW 22:37:15 27° SSW 22:37:15 27° SSW visible
01 Nov -2.3 21:46:55 10° SW 21:49:57 29° SSE 21:50:26 28° SE visible
02 Nov -1.7 20:58:27 10° SSW 21:01:07 21° SSE 21:03:38 11° ESE visible
02 Nov -1.7 22:34:43 10° WSW 22:36:31 28° WSW 22:36:31 28° WSW visible
